[[{"header":{"parameterUnit":"m.s-1","parameterCategory":1,"la1":30.2991,"la2":30.254,"lo1":-89.0895,"lo2":-89.0444,"dy":0.0017,"dx":0.0017,"nx":28,"ny":28,"refTime":"2024-06-11T09:00:00:Z","depth":0,"parameterNumber":2,"parameterNumberName":"U-component_of_WINDS"},"data":[0,0,0,0,0,0,0,0,0,0,0,0,0,0,0,0,0,0,0,0,0,0,0,0,0,0,0,0,0,0,0,0,0,0,0,0,0,0,0,0,0,0,0,0,0,0,0,0,0,0,0,0,0,0,0,0,0,0,-1.8539,-1.8538,0,-1.8358,-1.8356,-1.8354,-1.8196,-1.8194,-1.8192,-1.819,-1.8,-1.7997,-1.7993,0,0,0,0,0,0,0,0,0,0,0,0,0,-1.8744,-1.8741,-1.854,-1.8537,-1.8535,-1.8359,-1.8356,-1.8354,-1.8196,-1.8194,-1.8191,-1.8189,-1.8001,-1.7997,-1.7993,0,0,0,0,0,0,0,0,0,0,0,0,0,-1.8618,-1.874,-1.854,-1.8435,-1.8424,-1.8359,-1.8356,-1.8353,-1.8196,-1.8194,-1.8191,-1.8188,-1.8002,-1.7997,-1.7992,-1.8015,0,0,-1.7977,-1.7975,0,0,0,0,0,0,0,0,-1.8626,-1.8611,-1.8453,-1.8442,-1.843,-1.8297,-1.8358,-1.824,-1.8197,-1.8283,-1.819,-1.8187,-1.8101,-1.8087,-1.8059,-1.8006,-1.7998,-1.7976,-1.7973,-1.7971,-1.797,0,0,0,0,0,0,0,-1.8634,-1.8618,-1.8468,-1.8451,-1.8437,-1.8396,-1.8375,-1.8335,-1.8209,-1.8275,-1.8263,-1.8244,-1.8094,-1.8064,-1.8053,-1.7995,-1.7977,-1.7972,-1.7969,-1.7967,-1.795,-1.7952,0,0,0,0,0,0,-1.866,-1.8626,-1.8473,-1.8462,-1.8523,-1.8394,-1.8371,-1.8342,-1.8209,-1.8186,-1.8247,-1.8237,-1.8074,-1.8059,-1.8046,-1.8062,-1.7971,-1.7966,-1.7963,-1.7947,-1.7951,-1.7953,0,0,0,0,0,0,-1.8665,-1.8648,-1.8481,-1.8541,-1.8516,-1.8394,-1.8363,-1.834,-1.831,-1.8187,-1.8164,-1.824,-1.8072,-1.8053,-1.8024,-1.8053,-1.7964,-1.7959,-1.7944,-1.7948,-1.7952,-1.8096,0,0,0,0,0,0,-1.8672,-1.8651,-1.8659,-1.8542,-1.8514,-1.8464,-1.8364,-1.8338,-1.8303,-1.8289,-1.8175,-1.8153,-1.8068,-1.8032,-1.8019,-1.8045,-1.7956,-1.7941,-1.7946,-1.7951,-1.8088,-1.8104,-1.8118,0,0,0,0,0,-1.8679,-1.8706,-1.866,-1.8643,-1.8522,-1.8466,-1.8449,-1.8352,-1.8306,-1.8312,-1.8233,-1.8157,-1.8053,-1.8031,-1.8014,-1.8039,-1.7939,-1.7945,-1.795,-1.8081,-1.8101,-1.8118,0,0,0,0,0,0,-1.8828,-1.8689,-1.8637,-1.8627,-1.856,-1.8439,-1.8444,-1.8376,-1.8319,-1.8308,-1.8188,-1.8164,-1.8148,-1.809,-1.8068,-1.8053,-1.7986,-1.7988,-1.8091,-1.8109,-1.8124,-1.8136,-1.7951,0,0,0,0,0,-1.886,-1.8827,-1.8707,-1.871,-1.8679,-1.8568,-1.854,-1.8471,-1.8395,-1.8365,-1.8284,-1.8213,-1.8163,-1.8133,-1.8081,-1.808,-1.8051,-1.8089,-1.8104,-1.8117,-1.812,-1.8113,-1.8127,-1.7973,-1.7973,-1.7972,0,0,-1.8925,-1.8845,-1.8831,-1.8738,-1.8677,-1.8644,-1.8545,-1.8514,-1.8488,-1.836,-1.8327,-1.8266,-1.8177,-1.8162,-1.8151,-1.8114,-1.8157,-1.8125,-1.8136,-1.8131,-1.8121,-1.8135,-1.8148,-1.7977,-1.7976,-1.7975,0,0,-1.9025,-1.8963,-1.8957,-1.89,-1.881,-1.8736,-1.8736,-1.8626,-1.858,-1.8546,-1.8449,-1.8415,-1.8334,-1.8274,-1.8234,-1.8314,-1.824,-1.83,-1.8378,-1.8373,-1.8385,-1.8395,-1.8421,-1.8432,-1.8304,-1.8304,-1.8305,0,-1.9116,-1.9064,-1.8963,-1.8938,-1.8899,-1.8785,-1.8777,-1.8725,-1.8623,-1.8598,-1.8558,-1.8453,-1.8386,-1.8354,-1.8374,-1.8346,-1.8339,-1.8311,-1.8392,-1.8401,-1.8409,-1.8432,-1.8442,-1.8312,-1.8311,-1.831,-1.831,0,-1.9179,-1.9145,-1.9151,-1.9057,-1.9019,-1.9003,-1.8898,-1.8871,-1.8806,-1.8737,-1.8702,-1.8618,-1.8546,-1.8534,-1.847,-1.8493,-1.8472,-1.8415,-1.8343,-1.8433,-1.8453,-1.8461,-1.8323,-1.832,-1.8318,-1.8316,0,0,-1.9365,-1.9217,-1.9221,-1.9176,-1.907,-1.904,-1.9019,-1.8951,-1.8929,-1.8863,-1.884,-1.8775,-1.872,-1.8674,-1.8602,-1.8598,-1.8664,-1.8539,-1.8536,-1.8563,-1.8681,-1.8724,-1.8736,-1.8616,-1.8618,-1.8619,-1.8688,0,-1.9446,-1.9403,-1.9312,-1.9296,-1.9261,-1.9153,-1.9134,-1.9066,-1.9,-1.896,-1.8887,-1.8841,-1.8774,-1.8746,-1.8737,-1.8658,-1.8685,-1.8652,-1.8591,-1.859,-1.8614,-1.8746,-1.8791,-1.886,-1.8695,-1.8696,-1.8697,0,-1.9534,-1.9476,-1.9458,-1.9353,-1.9335,-1.932,-1.925,-1.9214,-1.9134,-1.9086,-1.9037,-1.8958,-1.8927,-1.8865,-1.882,-1.8799,-1.8769,-1.8727,-1.8727,-1.8715,-1.8647,-1.8735,-1.888,-1.889,-1.8709,-1.8708,-1.8707,0,-1.9669,-1.9586,-1.9564,-1.953,-1.9408,-1.94,-1.9348,-1.9266,-1.923,-1.9169,-1.9144,-1.908,-1.9044,-1.8995,-1.89,-1.8864,-1.8865,-1.8795,-1.8822,-1.8824,-1.8824,-1.8825,-1.8963,-1.8811,-1.881,-1.881,-1.881,0,-1.9766,-1.9759,-1.9623,-1.9609,-1.9596,-1.9492,-1.9482,-1.942,-1.9348,-1.9318,-1.9221,-1.9195,-1.9073,-1.9033,-1.8959,-1.8931,-1.8916,-1.8875,-1.8855,-1.8882,-1.8887,-1.8858,-1.885,-1.8813,-1.8812,-1.8812,-1.8811,0,-1.9913,-1.9822,-1.979,-1.9679,-1.965,-1.9646,-1.9549,-1.953,-1.946,-1.9424,-1.941,-1.9299,-1.9246,-1.9148,-1.9067,-1.9017,-1.9004,-1.8971,-1.9032,-1.9019,-1.905,-1.9048,-1.9172,-1.9182,-1.9028,-1.903,-1.9031,0,-1.9979,-1.9971,-1.9859,-1.9834,-1.9787,-1.9747,-1.971,-1.9608,-1.9574,-1.9483,-1.9474,-1.9415,-1.9361,-1.9282,-1.9192,-1.913,-1.9092,-1.9141,-1.9082,-1.9109,-1.9089,-1.909,-1.9087,-1.9153,-1.9155,-1.9157,-1.9158,0,-2.0107,-2.0062,-2.0015,-1.9953,-1.9913,-1.9858,-1.9798,-1.9782,-1.9665,-1.9632,-1.9578,-1.9537,-1.9455,-1.9396,-1.9321,-1.9265,-1.9191,-1.9178,-1.918,-1.9206,-1.924,-1.9219,-1.9065,-1.9175,-1.9173,-1.9172,-1.9171,-1.917,-2.0212,-2.0199,-2.0119,-2.0069,-2.0014,-1.9961,-1.9937,-1.9866,-1.9819,-1.9746,-1.9688,-1.9638,-1.9557,-1.9449,-1.9399,-1.9356,-1.9322,-1.9326,-1.9326,-1.9328,-1.9338,-1.9251,-1.9343,-1.9342,-1.9342,-1.9341,-1.9341,0,-2.0331,-2.0275,-2.0231,-2.0151,-2.0112,-2.005,-1.998,-1.9951,-1.9909,-1.9841,-1.9791,-1.9729,-1.9671,-1.9579,-1.9513,-1.9497,-1.9462,-1.9483,-1.9481,-1.9469,-1.9374,-1.9377,-1.9513,-1.9513,-1.9513,-1.9513,-1.9513,-1.9513,-2.0389,-2.0363,-2.031,-2.0255,-2.0198,-2.015,-2.0115,-2.0065,-2.001,-1.9945,-1.9898,-1.9839,-1.976,-1.9689,-1.9632,-1.9606,-1.9585,-1.9617,-1.958,-1.9492,-1.9476,-1.9461,-1.9463,-1.9614,-1.9614,-1.9678,-1.9678,-1.9679]},{"header":{"parameterUnit":"m.s-1","parameterCategory":1,"la1":30.2991,"la2":30.254,"lo1":-89.0895,"lo2":-89.0444,"dy":0.0017,"dx":0.0017,"nx":28,"ny":28,"refTime":"2024-06-11T09:00:00:Z","depth":0,"parameterNumber":3,"parameterNumberName":"V-component_of_WINDS"},"data":[0,0,0,0,0,0,0,0,0,0,0,0,0,0,0,0,0,0,0,0,0,0,0,0,0,0,0,0,0,0,0,0,0,0,0,0,0,0,0,0,0,0,0,0,0,0,0,0,0,0,0,0,0,0,0,0,0,0,-1.3858,-1.386,0,-1.4036,-1.4038,-1.404,-1.4152,-1.4153,-1.4154,-1.4154,-1.4337,-1.4341,-1.4345,0,0,0,0,0,0,0,0,0,0,0,0,0,-1.3614,-1.3618,-1.3858,-1.386,-1.3862,-1.4036,-1.4038,-1.404,-1.4152,-1.4153,-1.4154,-1.4155,-1.4336,-1.4341,-1.4346,0,0,0,0,0,0,0,0,0,0,0,0,0,-1.3749,-1.3619,-1.3857,-1.3939,-1.3948,-1.4035,-1.4038,-1.4041,-1.4152,-1.4153,-1.4154,-1.4155,-1.4334,-1.434,-1.4346,-1.4366,0,0,-1.4366,-1.4369,0,0,0,0,0,0,0,0,-1.3741,-1.3757,-1.3925,-1.3933,-1.3944,-1.4073,-1.4019,-1.415,-1.4152,-1.4075,-1.4154,-1.4155,-1.4248,-1.4262,-1.4293,-1.4375,-1.4383,-1.4366,-1.437,-1.4373,-1.4375,0,0,0,0,0,0,0,-1.3731,-1.375,-1.3928,-1.3927,-1.3938,-1.3966,-1.3987,-1.4045,-1.4154,-1.4081,-1.409,-1.411,-1.4254,-1.4287,-1.4298,-1.4386,-1.4366,-1.4372,-1.4376,-1.4378,-1.4492,-1.4492,0,0,0,0,0,0,-1.3709,-1.3742,-1.3923,-1.3934,-1.3843,-1.397,-1.3993,-1.403,-1.4154,-1.4173,-1.4109,-1.4114,-1.4275,-1.4291,-1.4305,-1.4336,-1.4373,-1.4379,-1.4383,-1.4493,-1.4492,-1.4491,0,0,0,0,0,0,-1.3703,-1.3724,-1.3915,-1.384,-1.3867,-1.3973,-1.4015,-1.4033,-1.4067,-1.4174,-1.4194,-1.4122,-1.4277,-1.4296,-1.435,-1.4344,-1.4382,-1.4388,-1.4494,-1.4493,-1.4492,-1.4398,0,0,0,0,0,0,-1.3696,-1.3721,-1.373,-1.3839,-1.387,-1.3957,-1.4014,-1.4036,-1.4077,-1.4086,-1.4192,-1.4211,-1.4279,-1.434,-1.4356,-1.4353,-1.4393,-1.4495,-1.4494,-1.4492,-1.4402,-1.4394,-1.4387,0,0,0,0,0,-1.3687,-1.3697,-1.373,-1.3751,-1.3883,-1.3957,-1.3974,-1.4053,-1.4076,-1.4086,-1.4155,-1.4207,-1.4342,-1.4345,-1.4364,-1.4363,-1.4496,-1.4494,-1.4492,-1.4406,-1.4396,-1.4387,0,0,0,0,0,0,-1.3584,-1.3713,-1.3751,-1.3797,-1.3865,-1.3975,-1.399,-1.4039,-1.4102,-1.4108,-1.4203,-1.4226,-1.427,-1.4323,-1.4323,-1.4389,-1.4425,-1.4427,-1.4353,-1.4344,-1.4336,-1.4322,-1.4398,0,0,0,0,0,-1.3567,-1.3616,-1.3725,-1.3755,-1.3787,-1.3882,-1.3917,-1.3972,-1.4046,-1.4076,-1.4149,-1.4219,-1.4277,-1.4314,-1.4374,-1.4411,-1.4435,-1.442,-1.4412,-1.4405,-1.4405,-1.4428,-1.4422,-1.4485,-1.4485,-1.4485,0,0,-1.3531,-1.3608,-1.3633,-1.3736,-1.3796,-1.3844,-1.3906,-1.3954,-1.3991,-1.4083,-1.4138,-1.4194,-1.4279,-1.4324,-1.4348,-1.4369,-1.4393,-1.4403,-1.4396,-1.4401,-1.4425,-1.4419,-1.4414,-1.4484,-1.4484,-1.4485,0,0,-1.3491,-1.3554,-1.3586,-1.3644,-1.3732,-1.3796,-1.3803,-1.3906,-1.3947,-1.4004,-1.4074,-1.4119,-1.4217,-1.4275,-1.4317,-1.4298,-1.4348,-1.4315,-1.4274,-1.4295,-1.429,-1.4286,-1.4278,-1.4274,-1.4315,-1.4315,-1.4314,0,-1.3436,-1.3512,-1.3595,-1.364,-1.3683,-1.3769,-1.3801,-1.3853,-1.3956,-1.3984,-1.4007,-1.4132,-1.4195,-1.4254,-1.425,-1.4281,-1.4292,-1.4303,-1.4284,-1.4281,-1.4278,-1.4272,-1.4269,-1.431,-1.431,-1.4311,-1.4311,0,-1.3439,-1.349,-1.3505,-1.3602,-1.3647,-1.3685,-1.3774,-1.381,-1.386,-1.3921,-1.3977,-1.4056,-1.4133,-1.4152,-1.4202,-1.4218,-1.4228,-1.4266,-1.4304,-1.4266,-1.4262,-1.426,-1.4303,-1.4305,-1.4306,-1.4307,0,0,-1.3339,-1.3482,-1.3486,-1.3531,-1.3635,-1.3676,-1.3718,-1.3793,-1.3821,-1.3889,-1.3926,-1.4008,-1.4043,-1.409,-1.4148,-1.4166,-1.4145,-1.4202,-1.4205,-1.4188,-1.4167,-1.4137,-1.4133,-1.4179,-1.4179,-1.4179,-1.416,0,-1.3313,-1.3392,-1.3469,-1.352,-1.3568,-1.365,-1.3686,-1.3754,-1.3811,-1.386,-1.3925,-1.398,-1.4023,-1.4052,-1.4074,-1.4143,-1.4142,-1.4145,-1.4214,-1.4215,-1.4189,-1.4131,-1.41,-1.4078,-1.4159,-1.4158,-1.4158,0,-1.3294,-1.3358,-1.3414,-1.3513,-1.3536,-1.3567,-1.3642,-1.3688,-1.3766,-1.3807,-1.3859,-1.392,-1.3968,-1.4001,-1.4068,-1.4068,-1.4101,-1.4139,-1.414,-1.4148,-1.4183,-1.4137,-1.4073,-1.4068,-1.4157,-1.4157,-1.4157,0,-1.3214,-1.3315,-1.3361,-1.3397,-1.3514,-1.3534,-1.3583,-1.3663,-1.3703,-1.3768,-1.3795,-1.3865,-1.3903,-1.3955,-1.4033,-1.405,-1.4091,-1.4131,-1.4126,-1.4123,-1.413,-1.4128,-1.4068,-1.4152,-1.4152,-1.4152,-1.4152,0,-1.3177,-1.3207,-1.3326,-1.3355,-1.3391,-1.3479,-1.3513,-1.357,-1.364,-1.368,-1.3756,-1.3793,-1.3893,-1.3942,-1.4003,-1.4048,-1.4065,-1.4099,-1.4115,-1.4092,-1.4087,-1.4114,-1.4117,-1.4151,-1.4152,-1.4152,-1.4152,0,-1.3093,-1.3174,-1.323,-1.3336,-1.3363,-1.3385,-1.3476,-1.3507,-1.3569,-1.3619,-1.3636,-1.3733,-1.3794,-1.3877,-1.3964,-1.4005,-1.4042,-1.4068,-1.4015,-1.4024,-1.4013,-1.4012,-1.3968,-1.3966,-1.4051,-1.405,-1.4049,0,-1.3063,-1.3089,-1.3197,-1.323,-1.3277,-1.3329,-1.337,-1.3457,-1.3497,-1.3587,-1.3606,-1.3673,-1.3731,-1.3825,-1.3903,-1.397,-1.3997,-1.3977,-1.4008,-1.3983,-1.3995,-1.3992,-1.3995,-1.3969,-1.3967,-1.3966,-1.3965,0,-1.3002,-1.3041,-1.3097,-1.3166,-1.3213,-1.3272,-1.3335,-1.3358,-1.3458,-1.3499,-1.3562,-1.3607,-1.3695,-1.376,-1.3837,-1.3889,-1.3943,-1.3955,-1.3957,-1.3933,-1.3901,-1.3917,-1.3993,-1.3955,-1.3956,-1.3957,-1.3958,-1.3958,-1.2944,-1.297,-1.305,-1.311,-1.3166,-1.3223,-1.3256,-1.3322,-1.3377,-1.3455,-1.3504,-1.3564,-1.3642,-1.3751,-1.38,-1.3849,-1.387,-1.3873,-1.3874,-1.3873,-1.3865,-1.3894,-1.3863,-1.3864,-1.3864,-1.3864,-1.3865,0,-1.2885,-1.2941,-1.2995,-1.308,-1.3127,-1.3174,-1.3246,-1.3282,-1.3334,-1.3402,-1.3457,-1.353,-1.3593,-1.3676,-1.3746,-1.3768,-1.3795,-1.3783,-1.3782,-1.3793,-1.3842,-1.3833,-1.3761,-1.3761,-1.3761,-1.3761,-1.3761,-1.3761,-1.286,-1.2906,-1.2954,-1.3029,-1.3085,-1.3144,-1.3181,-1.3234,-1.3288,-1.3365,-1.3418,-1.3472,-1.3546,-1.3621,-1.3681,-1.3704,-1.3726,-1.3706,-1.3736,-1.378,-1.379,-1.3798,-1.379,-1.371,-1.371,-1.3683,-1.3683,-1.3683]}]]